Sturgis, MI

5:17 AM EST on December 11, 2017 (GMT -0500)
Kirsch Municipal

Weather History for KIRS - February, 2013

Change the Weather History Date:

Saturday, February 23, 2013

  Actual Average (KHAI) Record (KHAI)
Temperature  
Mean Temperature 27 °F -  
Max Temperature 30 °F 39 °F 65 °F (1984)
Min Temperature 24 °F 23 °F -2 °F (1978)
Degree Days  
Heating Degree Days 38    
Moisture  
Dew Point 20 °F    
Average Humidity 76    
Maximum Humidity 86    
Minimum Humidity 64    
Precipitation  
Precipitation 0.00 in - - ()
Sea Level Pressure  
Sea Level Pressure 29.90 in    
Wind  
Wind Speed 11 mph (WSW)    
Max Wind Speed 16 mph    
Max Gust Speed 18 mph    
Visibility 10 miles    
Events Snow    
Averages and records for this station are not official NWS values.
T = Trace of Precipitation, MM = Missing Value Source: NWS Daily Summary

Daily Weather History Graph

Daily Weather History Graph

Search for Another Location

Airport or City:

Trip Planner

Search our weather history database for the weather conditions in past years. The results will help you decide how hot, cold, wet, or windy it might be!

Date:

Astronomy

Feb. 23, 2013 Rise Set
Actual Time 7:25 AM EST 6:25 PM EST
Civil Twilight 6:57 AM EST 6:53 PM EST
Nautical Twilight 6:25 AM EST 7:25 PM EST
Astronomical Twilight 5:52 AM EST 7:57 PM EST
Moon 4:34 PM EST (2/23) 5:48 AM EST (2/23)
Length of Visible Light 11h 55m
Length of Day
10h 59m
Waxing Gibbous, 95% of the Moon is Illuminated
Feb 23
Waxing Gibbous
Feb 25
Full
Mar 4
Last Quarter
Mar 11
New
Mar 19
First Quarter

Hourly Weather History & Observations

Time (EST) Temp. Windchill Dew Point Humidity Pressure Visibility Wind Dir Wind Speed Gust Speed Precip Events Conditions
12:15 AM 30.2 °F 20.8 °F 24.8 °F 80% 29.89 in 10.0 mi WSW 11.5 mph 16.1 mph N/A   Overcast
12:55 AM 28.4 °F 17.5 °F 23.0 °F 80% 29.89 in 10.0 mi SW 13.8 mph - N/A   Overcast
1:15 AM 28.4 °F 18.5 °F 21.2 °F 74% 29.89 in 10.0 mi WSW 11.5 mph 18.4 mph N/A   Overcast
1:35 AM 28.4 °F 19.7 °F 21.2 °F 74% 29.89 in 10.0 mi WSW 9.2 mph - N/A   Overcast
1:55 AM 28.4 °F 18.5 °F 21.2 °F 74% 29.89 in 10.0 mi WSW 11.5 mph - N/A   Overcast
2:15 AM 28.4 °F 19.1 °F 23.0 °F 80% 29.89 in 10.0 mi WSW 10.4 mph 16.1 mph N/A   Overcast
2:35 AM 28.4 °F 19.7 °F 21.2 °F 74% 29.89 in 10.0 mi WSW 9.2 mph - N/A   Overcast
2:55 AM 26.6 °F 17.5 °F 21.2 °F 80% 29.89 in 10.0 mi WSW 9.2 mph - N/A   Overcast
3:14 AM 26.6 °F 16.8 °F 21.2 °F 80% 29.88 in 10.0 mi SW 10.4 mph - N/A   Overcast
3:35 AM 26.6 °F 16.2 °F 21.2 °F 80% 29.88 in 10.0 mi SW 11.5 mph - N/A   Overcast
3:55 AM 26.6 °F 15.7 °F 21.2 °F 80% 29.88 in 10.0 mi WSW 12.7 mph 18.4 mph N/A   Overcast
4:14 AM 26.6 °F 15.2 °F 21.2 °F 80% 29.87 in 10.0 mi WSW 13.8 mph 18.4 mph N/A   Overcast
4:35 AM 26.6 °F 16.2 °F 21.2 °F 80% 29.88 in 10.0 mi West 11.5 mph 17.3 mph N/A   Overcast
4:55 AM 26.6 °F 15.7 °F 21.2 °F 80% 29.88 in 10.0 mi WSW 12.7 mph 16.1 mph N/A   Overcast
5:14 AM 26.6 °F 16.2 °F 21.2 °F 80% 29.88 in 10.0 mi WSW 11.5 mph 16.1 mph N/A   Overcast
5:35 AM 26.6 °F 15.7 °F 21.2 °F 80% 29.89 in 10.0 mi WSW 12.7 mph - N/A   Overcast
5:55 AM 26.6 °F 16.8 °F 21.2 °F 80% 29.89 in 10.0 mi WSW 10.4 mph - N/A   Overcast
6:14 AM 26.6 °F 16.2 °F 21.2 °F 80% 29.89 in 10.0 mi WSW 11.5 mph 17.3 mph N/A Snow Light Snow
6:35 AM 26.6 °F 16.2 °F 21.2 °F 80% 29.89 in 10.0 mi WSW 11.5 mph - N/A Snow Light Snow
6:54 AM 26.6 °F 17.5 °F 21.2 °F 80% 29.90 in 10.0 mi WSW 9.2 mph - N/A   Overcast
7:15 AM 26.6 °F 16.8 °F 21.2 °F 80% 29.90 in 10.0 mi WSW 10.4 mph - N/A   Overcast
7:34 AM 24.8 °F 15.3 °F 21.2 °F 86% 29.90 in 10.0 mi SW 9.2 mph - N/A   Overcast
7:55 AM 24.8 °F 15.3 °F 21.2 °F 86% 29.91 in 10.0 mi WSW 9.2 mph - N/A   Overcast
8:15 AM 26.6 °F 16.2 °F 21.2 °F 80% 29.92 in 10.0 mi WSW 11.5 mph - N/A   Overcast
8:34 AM 24.8 °F 13.4 °F 21.2 °F 86% 29.91 in 10.0 mi WSW 12.7 mph - N/A   Overcast
8:55 AM 24.8 °F 14.0 °F 21.2 °F 86% 29.91 in 10.0 mi WSW 11.5 mph - N/A   Overcast
9:15 AM 26.6 °F 16.2 °F 21.2 °F 80% 29.91 in 10.0 mi WSW 11.5 mph - N/A   Overcast
9:35 AM 26.6 °F 15.2 °F 21.2 °F 80% 29.91 in 10.0 mi WSW 13.8 mph - N/A   Overcast
9:55 AM 26.6 °F 15.2 °F 21.2 °F 80% 29.90 in 10.0 mi WSW 13.8 mph - N/A   Overcast
10:14 AM 26.6 °F 14.3 °F 19.4 °F 74% 29.90 in 10.0 mi WSW 16.1 mph - N/A   Overcast
10:55 AM 28.4 °F 17.5 °F 19.4 °F 69% 29.91 in 10.0 mi SW 13.8 mph - N/A   Overcast
11:35 AM 26.6 °F 14.7 °F 17.6 °F 69% 29.91 in 10.0 mi WSW 15.0 mph - N/A   Overcast
11:55 AM 26.6 °F 16.8 °F 17.6 °F 69% 29.91 in 10.0 mi WSW 10.4 mph - N/A   Overcast
12:14 PM 26.6 °F 14.7 °F 17.6 °F 69% 29.91 in 10.0 mi SW 15.0 mph 18.4 mph N/A   Overcast
12:35 PM 26.6 °F 15.7 °F 17.6 °F 69% 29.91 in 10.0 mi SW 12.7 mph - N/A   Overcast
12:55 PM 26.6 °F 16.2 °F 17.6 °F 69% 29.90 in 10.0 mi WSW 11.5 mph - N/A   Overcast
1:14 PM 26.6 °F 16.2 °F 17.6 °F 69% 29.89 in 10.0 mi WSW 11.5 mph - N/A   Overcast
1:35 PM 26.6 °F 16.2 °F 17.6 °F 69% 29.88 in 10.0 mi WSW 11.5 mph 17.3 mph N/A   Overcast
1:55 PM 28.4 °F 18.0 °F 17.6 °F 64% 29.89 in 10.0 mi WSW 12.7 mph - N/A   Overcast
2:14 PM 28.4 °F 18.5 °F 17.6 °F 64% 29.88 in 10.0 mi West 11.5 mph 18.4 mph N/A   Overcast
2:35 PM 28.4 °F 18.5 °F 17.6 °F 64% 29.88 in 10.0 mi WSW 11.5 mph - N/A   Overcast
2:55 PM 28.4 °F 18.0 °F 17.6 °F 64% 29.88 in 10.0 mi WSW 12.7 mph - N/A   Overcast
3:14 PM 28.4 °F 19.1 °F 17.6 °F 64% 29.88 in 10.0 mi West 10.4 mph 16.1 mph N/A   Overcast
3:35 PM 28.4 °F 18.5 °F 17.6 °F 64% 29.88 in 10.0 mi WSW 11.5 mph 16.1 mph N/A   Overcast
3:55 PM 28.4 °F 19.1 °F 17.6 °F 64% 29.88 in 10.0 mi WSW 10.4 mph - N/A   Overcast
4:14 PM 26.6 °F 16.2 °F 19.4 °F 74% 29.88 in 10.0 mi WSW 11.5 mph - N/A   Overcast
4:35 PM 26.6 °F 16.2 °F 17.6 °F 69% 29.89 in 10.0 mi WSW 11.5 mph - N/A   Overcast
4:55 PM 26.6 °F 16.2 °F 19.4 °F 74% 29.89 in 10.0 mi WSW 11.5 mph - N/A   Overcast
5:15 PM 26.6 °F 16.8 °F 19.4 °F 74% 29.89 in 10.0 mi WSW 10.4 mph - N/A   Overcast
5:34 PM 26.6 °F 15.7 °F 19.4 °F 74% 29.89 in 10.0 mi WSW 12.7 mph - N/A   Overcast
5:55 PM 26.6 °F 16.8 °F 19.4 °F 74% 29.90 in 10.0 mi WSW 10.4 mph - N/A   Overcast
6:15 PM 26.6 °F 17.5 °F 19.4 °F 74% 29.90 in 10.0 mi WSW 9.2 mph - N/A   Overcast
6:34 PM 26.6 °F 19.1 °F 19.4 °F 74% 29.90 in 10.0 mi WSW 6.9 mph - N/A   Overcast
6:55 PM 26.6 °F 18.2 °F 17.6 °F 69% 29.91 in 10.0 mi WSW 8.1 mph - N/A   Overcast
7:14 PM 26.6 °F 17.5 °F 17.6 °F 69% 29.91 in 10.0 mi WSW 9.2 mph - N/A   Overcast
7:35 PM 24.8 °F 16.1 °F 17.6 °F 74% 29.92 in 10.0 mi WSW 8.1 mph - N/A   Overcast
7:55 PM 24.8 °F 16.9 °F 17.6 °F 74% 29.92 in 10.0 mi West 6.9 mph - N/A   Overcast
8:15 PM 24.8 °F 17.9 °F 19.4 °F 80% 29.92 in 10.0 mi West 5.8 mph - N/A   Overcast
8:35 PM 24.8 °F - 21.2 °F 86% 29.93 in 7.0 mi Calm Calm - N/A Snow Light Snow
8:54 PM 24.8 °F 19.1 °F 21.2 °F 86% 29.93 in 10.0 mi WNW 4.6 mph - N/A Snow Light Snow
9:15 PM 24.8 °F - 21.2 °F 86% 29.93 in 7.0 mi Calm Calm - N/A Snow Light Snow
9:35 PM 24.8 °F - 21.2 °F 86% 29.92 in 10.0 mi Calm Calm - N/A   Overcast
9:54 PM 24.8 °F - 21.2 °F 86% 29.92 in 10.0 mi Calm Calm - N/A   Overcast
10:15 PM 24.8 °F 20.5 °F 21.2 °F 86% 29.92 in 10.0 mi West 3.5 mph - N/A   Overcast
10:35 PM 24.8 °F 20.5 °F 19.4 °F 80% 29.92 in 10.0 mi West 3.5 mph - N/A   Overcast
10:54 PM 24.8 °F 16.9 °F 19.4 °F 80% 29.92 in 10.0 mi West 6.9 mph - N/A   Overcast
11:15 PM 24.8 °F 17.9 °F 19.4 °F 80% 29.91 in 10.0 mi WSW 5.8 mph - N/A   Overcast
11:35 PM 24.8 °F 16.9 °F 19.4 °F 80% 29.91 in 10.0 mi WSW 6.9 mph - N/A   Overcast
11:54 PM 24.8 °F 17.9 °F 19.4 °F 80% 29.91 in 10.0 mi WSW 5.8 mph - N/A   Overcast